www.pogodaiklimat.ru

Погода и климат >> Архив погоды >> Австрия >> Дойчландсберг


ПОГОДА в Дойчландсберге

  • Прогноз погоды в Дойчландсберге
  • Монитор погоды в Дойчландсберге

АРХИВ ПОГОДЫ в Дойчландсберге

Время (UTC), дата Ветер
(напр.,м/с)
 
Видим.   Явления Облачность Т
(С)
Тd
(С)
f
(%)
Тe
(С)
Тes
(С)
Комфортность P
(гПа)
Po
(гПа)
Тmin
(С)
Tmax
(С)
R
(мм)
R24
(мм)
S
(см)
22 10.06 З 1 н/о н/о +20.6 +16.8 79 +25 +25 комфорт 1013.0 972.5
23 10.06 ЮЗ 1 н/о н/о +19.8 +16.6 82 +23 +23 комфорт 1012.9 972.3
00 11.06 штиль 0 н/о н/о +18.9 +16.3 85 +20 +20 1012.6 971.8 0.0
01 11.06 ЮЗ 1 н/о н/о +18.5 +15.9 85 +20 +20 1012.2 971.4
02 11.06 З 1 н/о н/о +18.1 +15.6 85 +19 +19 1011.8 971.0
03 11.06 штиль 0 н/о н/о +17.9 +15.4 85 +18 +18 1012.1 971.2
04 11.06 штиль 0 н/о н/о +18.0 +15.2 84 +18 +18 1012.2 971.3
05 11.06 В 1 н/о н/о +19.8 +16.0 79 +23 +23 комфорт 1011.7 971.1
06 11.06 В 1 н/о н/о +21.9 +16.0 69 +26 +26 душно 1011.5 971.2 +17.7 +26.8 0.0
07 11.06 В 1 н/о н/о +24.1 +16.9 64 +28 +28 душно 1011.9 971.9
08 11.06 СВ 1 н/о н/о +24.9 +17.7 64 +29 +29 душно 1012.1 972.2
09 11.06 В 2 н/о н/о +26.2 +17.3 58 +30 +30 душно 1011.7 972.0
10 11.06 СВ 1 н/о н/о +27.3 +18.7 59 +32 +32 очень
душно
1011.0 971.5
11 11.06 ЮВ 2 н/о н/о +28.4 +17.9 53 +33 +33 очень
душно
1010.7 971.3
12 11.06 Ю 2 н/о н/о +29.4 +17.9 50 +34 +34 очень
душно
1010.1 970.9
13 11.06 Ю 2 н/о н/о +29.8 +16.3 44 +33 +33 душно 1009.9 970.7
14 11.06 В 3 н/о н/о +30.0 +17.5 47 +34 +34 очень
душно
1009.2 970.1
15 11.06 В 3 н/о н/о +28.5 +18.0 53 +33 +33 очень
душно
1009.3 970.0
16 11.06 СВ 2 н/о н/о +25.8 +17.0 58 +30 +30 душно 1010.4 970.7
17 11.06 штиль 0 н/о н/о +25.4 +17.1 60 +29 +29 душно 1011.3 971.5 0.0
18 11.06 С 1 н/о н/о +24.4 +18.2 68 +29 +29 душно 1011.4 971.5 +21.9 +30.3 0.0
19 11.06 В 3 н/о н/о +23.5 +18.8 75 +28 +28 душно 1012.5 972.4
20 11.06 Ю 1 н/о н/о +22.6 +16.9 70 +27 +27 душно 1013.0 972.7 0.0
21 11.06 В 1 н/о н/о +21.7 +18.1 80 +26 +26 душно 1013.4 973.0 0.0
22 11.06 В 1 н/о н/о +20.6 +15.0 70 +25 +25 комфорт 1013.2 972.6
23 11.06 З 1 н/о н/о +19.7 +16.1 80 +23 +23 комфорт 1013.0 972.3
00 12.06 СЗ 1 н/о н/о +19.0 +15.9 82 +21 +21 комфорт 1011.8 971.1 0.0
01 12.06 штиль 0 н/о н/о +17.7 +15.3 86 +18 +18 1011.8 970.9
02 12.06 ЮЗ 1 н/о н/о +17.2 +14.7 85 +18 +18 1011.9 970.9
03 12.06 штиль 0 н/о н/о +16.8 +14.2 85 +17 +17 1011.5 970.5
04 12.06 СЗ 1 н/о н/о +16.2 +14.3 89 +17 +17 1012.7 971.5
05 12.06 В 1 н/о н/о +19.0 +14.9 77 +21 +21 комфорт 1011.9 971.2
06 12.06 СВ 1 н/о н/о +20.2 +15.0 72 +24 +24 комфорт 1012.2 971.6 +16.1 +24.8 0.0
07 12.06 В 1 н/о н/о +22.3 +15.7 66 +26 +26 жарко 1012.1 971.8
08 12.06 СВ 2 н/о н/о +23.5 +15.3 60 +26 +26 жарко 1012.0 971.9
09 12.06 В 2 н/о н/о +25.1 +15.0 53 +28 +28 жарко 1011.5 971.6
10 12.06 В 2 н/о н/о +26.3 +16.3 54 +30 +30 душно 1010.9 971.2
11 12.06 В 2 н/о н/о +27.8 +18.1 56 +33 +33 очень
душно
1010.3 970.8
12 12.06 В 2 н/о н/о +28.9 +17.2 49 +33 +33 очень
душно
1009.6 970.3
13 12.06 В 3 н/о н/о +30.0 +17.3 46 +34 +34 очень
душно
1009.0 969.9
14 12.06 ЮВ 4 н/о н/о +31.0 +16.2 41 +34 +34 душно 1008.6 969.6
15 12.06 ЮВ 3 н/о н/о +30.3 +17.1 45 +34 +34 очень
душно
1008.4 969.3
16 12.06 ЮВ 3 н/о н/о +30.3 +17.2 45 +34 +34 очень
душно
1008.2 969.1
17 12.06 Ю 3 н/о н/о +30.1 +16.8 45 +34 +34 очень
душно
1008.1 969.0
18 12.06 Ю 2 н/о н/о +28.7 +17.2 50 +33 +33 очень
душно
1008.5 969.2 +19.9 +31.3
19 12.06 ЮВ 2 н/о н/о +26.6 +18.3 60 +31 +31 душно 1009.7 970.1
20 12.06 ЮЗ 2 н/о в посл. час осадки н/о +21.9 +18.6 82 +27 +27 душно 1011.3 971.0 2
21 12.06 штиль 0 н/о в посл. час осадки н/о +20.8 +19.1 90 +25 +25 комфорт 1011.5 971.1 3
22 12.06 штиль 0 н/о н/о +20.2 +19.0 93 +24 +24 комфорт 1011.7 971.2
23 12.06 З 1 н/о н/о +19.1 +18.2 95 +22 +22 комфорт 1011.8 971.1
00 13.06 З 1 н/о {ливн. осадки} н/о +18.3 +17.3 94 +20 +20 1011.8 971.0 3
01 13.06 ЮЗ 1 н/о н/о +17.2 +15.7 91 +18 +18 1011.8 970.8
02 13.06 ЮЗ 1 н/о н/о +16.5 +14.7 89 +17 +17 1011.8 970.7
03 13.06 штиль 0 н/о н/о +16.1 +14.9 93 +16 +16 1012.0 970.9
04 13.06 В 1 н/о н/о +16.6 +15.3 92 +17 +17 1012.4 971.3
05 13.06 СЗ 1 н/о н/о +18.8 +16.5 86 +21 +21 комфорт 1012.7 971.9
06 13.06 штиль 0 н/о н/о +22.1 +16.1 69 +26 +26 душно 1012.2 971.9 +15.9 +28.8 3
07 13.06 штиль 0 н/о н/о +24.0 +17.7 68 +28 +28 душно 1012.0 972.0
08 13.06 В 1 н/о н/о +25.3 +19.3 69 +30 +30 душно 1011.6 971.8
09 13.06 СВ 2 н/о н/о +27.1 +19.7 64 +33 +33 очень
душно
1011.4 971.8
10 13.06 Ю 3 н/о н/о +29.3 +16.5 46 +33 +33 душно 1010.6 971.3
11 13.06 Ю 5 н/о н/о +29.9 +12.9 35 +31 +31 жарко 1010.7 971.4
12 13.06 Ю 5 н/о н/о +30.0 +13.9 37 +32 +32 жарко 1010.2 971.0
13 13.06 Ю 4 н/о н/о +30.6 +13.7 36 +32 +32 жарко 1010.3 971.1
14 13.06 Ю 5 н/о н/о +30.5 +13.5 35 +32 +32 жарко 1010.1 970.9
15 13.06 Ю 6 н/о н/о +30.6 +11.3 30 +31 +31 жарко 1010.2 971.0
16 13.06 Ю 5 н/о н/о +30.3 +11.4 31 +31 +31 жарко 1010.3 971.1
17 13.06 Ю 5 н/о н/о +29.4 +11.9 34 +30 +30 жарко 1010.5 971.1
18 13.06 Ю 2 н/о н/о +28.0 +12.6 39 +29 +29 жарко 1010.8 971.3 +21.7 +30.8
19 13.06 СЗ 1 н/о н/о +24.2 +13.7 52 +26 +26 жарко 1011.6 971.6
20 13.06 ЮЗ 2 н/о н/о +25.3 +11.6 42 +27 +27 жарко 1012.1 972.1
21 13.06 СВ 1 н/о н/о +23.8 +11.6 46 +25 +25 комфорт 1012.5 972.3
22 13.06 ЮВ 2 н/о н/о +23.2 +11.2 47 +25 +25 комфорт 1013.0 972.7
23 13.06 Ю 1 н/о н/о +20.4 +12.1 59 +23 +23 комфорт 1013.6 972.9
00 14.06 З 1 н/о н/о +19.6 +11.2 58 +22 +22 комфорт 1014.1 973.3
01 14.06 ЮЗ 1 н/о н/о +18.0 +10.8 63 +19 +19 1014.7 973.7
02 14.06 З 1 н/о н/о +16.8 +11.3 70 +18 +18 1015.0 973.8
03 14.06 ЮЗ 1 н/о н/о +16.3 +11.6 74 +17 +17 1015.8 974.5
04 14.06 З 1 н/о н/о +16.4 +11.5 73 +17 +17 1016.8 975.5
05 14.06 штиль 0 н/о н/о +19.5 +12.6 64 +21 +21 комфорт 1016.9 976.0
06 14.06 В 1 н/о н/о +22.8 +12.8 53 +26 +26 жарко 1017.6 977.1 +15.6 +28.3
07 14.06 ЮЗ 1 н/о н/о +24.2 +12.7 49 +26 +26 жарко 1018.1 977.8
08 14.06 Ю 1 н/о н/о +26.5 +11.2 38 +27 +27 жарко 1017.8 977.8
09 14.06 Ю 1 н/о н/о +27.5 +13.8 43 +30 +30 жарко 1017.6 977.7
10 14.06 Ю 2 н/о н/о +29.3 +13.5 38 +31 +31 жарко 1017.3 977.7
11 14.06 ЮВ 2 н/о н/о +29.5 +12.6 35 +31 +31 жарко 1017.1 977.5
12 14.06 ЮВ 1 н/о н/о +30.6 +12.9 34 +32 +32 жарко 1016.4 977.0
13 14.06 СВ 1 н/о н/о +31.4 +14.6 36 +33 +33 жарко 1015.9 976.6
14 14.06 ЮВ 2 н/о н/о +31.5 +13.2 33 +33 +33 жарко 1015.6 976.3
15 14.06 Ю 2 н/о н/о +31.5 +15.1 37 +34 +34 душно 1014.9 975.7
16 14.06 В 3 н/о н/о +30.6 +15.9 41 +33 +33 душно 1014.9 975.6
17 14.06 В 3 н/о н/о +30.2 +15.3 40 +33 +33 душно 1014.9 975.5
18 14.06 ЮВ 1 н/о н/о +29.2 +15.7 44 +32 +32 душно 1015.0 975.5 +22.3 +32.0
19 14.06 З 1 н/о н/о +24.9 +17.2 62 +29 +29 душно 1015.8 975.7
20 14.06 ЮЗ 1 н/о н/о +22.8 +16.9 69 +28 +28 душно 1016.3 975.9
21 14.06 ЮЗ 1 н/о н/о +21.7 +16.7 73 +26 +26 душно 1016.5 976.0
22 14.06 ЮЗ 1 н/о н/о +21.1 +16.3 74 +24 +24 комфорт 1016.3 975.7
23 14.06 штиль 0 н/о н/о +20.4 +16.2 77 +23 +23 комфорт 1016.3 975.6
00 15.06 штиль 0 н/о н/о +20.2 +15.6 75 +23 +23 комфорт 1016.1 975.4
01 15.06 З 1 н/о н/о +19.1 +15.7 81 +22 +22 комфорт 1015.6 974.7
02 15.06 штиль 0 н/о н/о +18.4 +15.5 83 +19 +19 1015.5 974.5
03 15.06 штиль 0 н/о н/о +17.8 +15.4 86 +18 +18 1015.4 974.4
04 15.06 СВ 1 н/о н/о +17.7 +15.4 86 +19 +19 1015.3 974.3
05 15.06 С 1 н/о н/о +19.3 +15.4 78 +22 +22 комфорт 1014.9 974.1
06 15.06 СЗ 1 н/о н/о +20.6 +15.4 72 +25 +25 комфорт 1014.8 974.2 +17.6 +29.4
07 15.06 СВ 1 н/о н/о +22.6 +16.9 70 +27 +27 душно 1014.4 974.1
08 15.06 Ю 1 н/о н/о +24.8 +16.3 59 +28 +28 жарко 1013.8 973.8
09 15.06 ЮВ 1 н/о н/о +26.5 +17.1 56 +30 +30 душно 1013.6 973.8
10 15.06 СВ 1 н/о н/о +27.6 +18.5 58 +33 +33 очень
душно
1013.1 973.5
11 15.06 В 1 н/о н/о +27.8 +18.6 57 +33 +33 очень
душно
1013.1 973.5
12 15.06 СВ 1 н/о н/о +28.2 +18.7 56 +33 +33 очень
душно
1012.5 973.0
13 15.06 С 1 н/о н/о +29.0 +21.8 65 +37 +37 очень
душно
1012.0 972.7
14 15.06 С 2 н/о н/о +29.4 +20.3 58 +36 +36 очень
душно
1011.6 972.3
15 15.06 В 1 н/о н/о +30.1 +19.3 52 +36 +36 очень
душно
1010.8 971.6
16 15.06 ЮВ 2 н/о н/о +30.2 +18.8 51 +36 +36 очень
душно
1010.1 971.0
17 15.06 ЮВ 2 н/о н/о +29.9 +16.2 44 +33 +33 душно 1010.1 970.9
18 15.06 З 1 н/о н/о +27.8 +19.7 61 +34 +34 очень
душно
1010.2 970.8 +20.3 +30.5
19 15.06 ЮЗ 1 н/о н/о +24.7 +18.6 69 +29 +29 душно 1010.7 970.8
20 15.06 штиль 0 н/о н/о +22.5 +18.2 77 +28 +28 душно 1011.7 971.5
21 15.06 штиль 0 н/о н/о +21.3 +18.1 82 +26 +26 душно 1011.9 971.5
22 15.06 штиль 0 н/о н/о +20.6 +17.7 83 +24 +24 комфорт 1012.3 971.8
23 15.06 штиль 0 н/о н/о +19.8 +16.0 79 +22 +22 комфорт 1012.6 972.0
00 16.06 штиль 0 н/о н/о +19.1 +16.2 83 +20 +20 1012.7 972.0
01 16.06 штиль 0 н/о н/о +18.5 +15.8 84 +19 +19 1012.4 971.6
02 16.06 В 1 н/о н/о +18.2 +15.2 83 +20 +20 1012.3 971.4
03 16.06 СЗ 1 н/о н/о +17.6 +15.3 86 +19 +19 1012.5 971.6
04 16.06 штиль 0 н/о н/о +17.8 +15.2 85 +18 +18 1013.3 972.3
05 16.06 СЗ 1 н/о н/о +20.2 +15.2 73 +24 +24 комфорт 1013.0 972.4
06 16.06 СВ 1 н/о н/о +23.3 +16.7 66 +28 +28 душно 1013.3 973.1 +17.3 +28.5
07 16.06 В 1 н/о н/о +24.6 +17.8 66 +29 +29 душно 1013.5 973.5
08 16.06 С 2 н/о н/о +25.6 +17.4 61 +30 +30 душно 1013.9 974.0
09 16.06 Ю 1 н/о н/о +27.1 +16.6 53 +31 +31 душно 1013.8 974.1
10 16.06 В 3 н/о н/о +27.6 +15.1 46 +30 +30 жарко 1013.8 974.1
11 16.06 ЮВ 3 н/о н/о +28.4 +16.8 49 +32 +32 душно 1013.3 973.8
12 16.06 СВ 2 н/о н/о +28.9 +16.4 47 +32 +32 душно 1012.8 973.4
13 16.06 В 3 н/о н/о +28.6 +15.9 46 +32 +32 душно 1012.5 973.0
14 16.06 СВ 7 н/о н/о +26.7 +15.2 49 +29 +29 жарко 1013.3 973.5
15 16.06 СВ 4 н/о осадки н/о +22.0 +17.0 73 +26 +26 душно 1015.0 974.6 0.3
16 16.06 З 2 н/о н/о +20.2 +15.3 73 +23 +23 комфорт 1016.0 975.3 0.0
17 16.06 СЗ 1 н/о в посл. час осадки н/о +19.4 +15.9 80 +22 +22 комфорт 1016.2 975.4 0.1
18 16.06 З 2 н/о в посл. час осадки {ливн. осадки} н/о +19.5 +16.9 85 +22 +22 комфорт 1017.0 976.2 +19.3 +30.2 0.5
19 16.06 З 2 н/о в посл. час осадки н/о +18.8 +16.6 87 +21 +21 комфорт 1017.6 976.6 0.3
20 16.06 С 1 н/о н/о +18.2 +15.6 85 +20 +20 1017.9 976.8 0.0
21 16.06 ЮЗ 1 н/о {осадки} н/о +18.3 +15.9 86 +20 +20 1019.2 978.1 0.3
22 16.06 штиль 0 н/о н/о +18.3 +14.8 80 +19 +19 1019.1 978.0
23 16.06 штиль 0 н/о н/о +18.8 +13.8 73 +20 +20 1018.8 977.7
00 17.06 штиль 0 н/о {осадки} н/о +17.4 +13.7 79 +17 +17 1019.0 977.7 0.3
01 17.06 С 1 н/о н/о +16.6 +13.8 84 +17 +17 1018.9 977.5
02 17.06 ЮВ 1 н/о н/о +16.1 +14.0 87 +17 +17 1019.0 977.6
03 17.06 СВ 1 н/о н/о +15.5 +13.4 87 +16 +16 1019.7 978.1
04 17.06 штиль 0 н/о н/о +15.5 +13.6 88 +15 +15 1019.7 978.1
05 17.06 В 1 н/о н/о +17.9 +13.9 77 +19 +19 1019.1 977.9
06 17.06 В 2 н/о н/о +21.1 +14.1 64 +24 +24 комфорт 1018.6 977.9 +15.4 +21.1 0.3
07 17.06 В 1 н/о н/о +22.3 +14.9 63 +26 +26 жарко 1018.4 977.8
08 17.06 ЮВ 2 н/о н/о +22.4 +14.8 62 +26 +26 жарко 1018.8 978.2
09 17.06 ЮВ 1 н/о н/о +23.0 +14.0 57 +26 +26 жарко 1018.5 978.0
10 17.06 Ю 1 н/о н/о +23.6 +13.7 54 +26 +26 жарко 1018.5 978.1
11 17.06 ЮВ 2 н/о н/о +24.3 +12.3 47 +26 +26 жарко 1018.2 977.9
12 17.06 Ю 2 н/о н/о +24.5 +13.8 51 +27 +27 жарко 1018.0 977.7
13 17.06 ЮВ 3 н/о н/о +24.2 +14.7 55 +27 +27 жарко 1018.0 977.7
15 17.06 ЮВ 1 н/о н/о +23.7 +14.5 56 +26 +26 жарко 1017.1 976.8
17 17.06 С 1 н/о н/о +23.5 +15.7 62 +27 +27 душно 1016.9 976.6
18 17.06 С 1 н/о н/о +22.4 +15.9 67 +27 +27 душно 1017.0 976.5 +20.3 +24.9
19 17.06 штиль 0 н/о н/о +21.0 +15.6 71 +24 +24 комфорт 1017.5 976.8
20 17.06 З 1 н/о н/о +20.5 +15.8 74 +25 +25 комфорт 1018.2 977.4

 

Местоположение метеостанции Дойчландсберг (Австрия): широта 46.82 долгота 15.23 высота над уровнем моря 354 м.

В архиве по умолчанию представлена погода в Дойчландсберге за последнюю неделю. Архивные данные за месяц целиком и за предыдущие месяцы, начиная с января 2011 года, Вы можете получить, выбрав интересующий диапазон дат из раскрывающегося списка и нажав кнопку "Ввод!".


*Определитесь, кто Вы:
робот инопланетянин человек

Внимание! Время в таблицах - всемирное. Для получения местного времени необходимо прибавить поправку, которая равна 1 ч.

Смотрите также архив погоды в соседних городах и на ближайших метеорологических станциях:

Погода в Лейбнице (Австрия) (25 км)
Погода в Граце (Австрия) (25 км)
Погода в Прайтенеге (Австрия) (27 км)
Погода в Кёфлаге (Австрия) (30 км)
Погода в Санкт-Андре (Австрия) (31 км)
Погода в Граце университет (Австрия) (37 км)
Погода в Ласницхёэ (Австрия) (38 км)
Погода в Словень-Градеце (Словения) (39 км)
Погода в Санкт Радегунд бай Грац (Австрия) (43 км)
Погода в Файстриц-об-Блайбурге (Австрия) (45 км)

Пояснения к столбцам:

Ветер - указаны скорость ветра в м/с - средняя за 10 мин, порывы в срок и между сроками (в фигурных скобках) и направление, откуда дует ветер: С - северный, СВ - северо-восточный, В - восточный, ЮВ - юго-восточный, Ю - южный, ЮЗ - юго-западный, З - западный, СЗ - северо-западный.
Видимость - горизонтальная дальность видимости в метрах или километрах. При видимости от 1 до 10 км при отсутствии осадков обычно наблюдается дымка, при ухудшении видимости до 1 км и менее - туман. В сухую погоду видимость может ухудшаться дымом, пылью или мглою.
Явления - указаны атмосферные явления, наблюдавшиеся в срок или в последний час перед сроком; фигурными скобками обозначены явления, наблюдавшиеся между сроками (за 1-3 часа до срока); квадратными скобками обозначены град или гололедные отложения с указанием их диаметра в мм.
Облачность - указаны через наклонную черту общая и нижняя облачность в баллах и высота нижней границы облаков в метрах; квадратными скобками обозначены формы облаков: Ci - перистые, Cs - перисто-слоистые, Cc - перисто-кучевые, Ac - высококучевые, As - высокослоистые, Sc - слоисто-кучевые, Ns - слоисто-дождевые, Cu - кучевые, Cb - кучево-дождевые. Подробнее классификацию облаков см. в Атласе облаков (PDF).
T - Температура воздуха - температура, измеренная на высоте 2 м над землей.
Td - Температура точки росы - температура, при понижении до которой содержащийся в воздухе водяной пар достигнет насыщения.
f - Относительная влажность воздуха - влажноcть воздуха, измеренная на высоте 2 м над землей.
Te - Эффективная температура - температура, которую ощущает одетый по сезону человек в тени. Характеристика душности погоды. При расчете учитывается влияние влажности воздуха и скорости ветра на теплоощущения человека.
Tes - Эффективная температура на солнце - температура, которую ощущает человек, с поправкой на солнечный нагрев. Характеристика знойности погоды. Зависит от высоты солнца над горизонтом, облачности и скорости ветра. Ночью, в пасмурную погоду, а также при ветре 12 м/с и более поправка равна нулю.
P - Атмосферное давление - приведенное к уровню моря атмосферное давление.
Po - Атмосферное давление - измеренное на уровне метеостанции атмосферное давление.
Tmin - Минимальная температура - минимум температуры воздуха на высоте 2 м над землей.
Tmax - Максимальная температура - максимум температуры воздуха на высоте 2 м над землей.
R - Количество осадков - Количество выпавших осадков за период времени, мм. При наведении курсора мыши на число - период времени, за который выпало указанное количество осадков.
R24 - Количество осадков - Количество выпавших осадков за 24 часа, мм.
S - Снежный покров - Высота снежного покрова, см. При наведении курсора мыши на число - состояние снежного покрова и степень покрытия местности в баллах.